CGZMA CYKF-CYXU

Flight info

Callsign CGZMA
Flight time 0h 39m
Altitude
Route
Aircraft C152

Departure

Time 2026-04-28 01:30
Airport Region of Waterloo International Airport (CYKF)

Arrival

Time 2026-04-28 02:09
Airport London International Airport (CYXU)
Time Latitude Longitude Altitude Speed Heading
2026-04-28 01:16 43.45224 -80.38163 1030 ft 0 kts 84°
2026-04-28 01:17 43.45235 -80.38155 1030 ft 5 kts 327°
2026-04-28 01:18 43.45221 -80.38199 1030 ft 6 kts 259°
2026-04-28 01:18 43.45222 -80.38256 1030 ft 3 kts 282°
2026-04-28 01:18 43.45234 -80.38286 1030 ft 5 kts 11°
2026-04-28 01:18 43.45282 -80.38272 1030 ft 7 kts 11°
2026-04-28 01:19 43.45326 -80.38262 1030 ft 6 kts
2026-04-28 01:19 43.45362 -80.38254 1030 ft 5 kts
2026-04-28 01:19 43.45392 -80.38248 1030 ft 4 kts 10°
2026-04-28 01:19 43.45402 -80.38245 1030 ft 0 kts 15°
2026-04-28 01:21 43.45427 -80.38224 1030 ft 6 kts 45°
2026-04-28 01:21 43.45456 -80.38192 1030 ft 5 kts 37°
2026-04-28 01:21 43.45495 -80.38163 1030 ft 8 kts 346°
2026-04-28 01:22 43.45533 -80.38224 1030 ft 11 kts 308°
2026-04-28 01:22 43.45580 -80.38302 1030 ft 14 kts 309°
2026-04-28 01:22 43.45623 -80.38376 1030 ft 4 kts 312°
2026-04-28 01:22 43.45640 -80.38407 1030 ft 4 kts 312°
2026-04-28 01:23 43.45662 -80.38440 1030 ft 10 kts 314°
2026-04-28 01:23 43.45729 -80.38560 1030 ft 14 kts 308°
2026-04-28 01:23 43.45744 -80.38639 1030 ft 7 kts 240°
2026-04-28 01:23 43.45732 -80.38674 1030 ft 6 kts 246°
2026-04-28 01:24 43.45723 -80.38699 1030 ft 6 kts 244°
2026-04-28 01:24 43.45696 -80.38777 1030 ft 12 kts 244°
2026-04-28 01:24 43.45679 -80.38891 1030 ft 11 kts 323°
2026-04-28 01:25 43.45746 -80.38927 1031 ft 10 kts 338°
2026-04-28 01:25 43.45831 -80.38983 1032 ft 16 kts 328°
2026-04-28 01:25 43.45931 -80.39066 1030 ft 16 kts 327°
2026-04-28 01:25 43.46024 -80.39143 1030 ft 15 kts 327°
2026-04-28 01:26 43.46107 -80.39212 1031 ft 13 kts 336°
2026-04-28 01:26 43.46184 -80.39213 1031 ft 1 kts 27°
2026-04-28 01:26 43.46185 -80.39213 1031 ft 0 kts 28°
2026-04-28 01:28 43.46212 -80.39182 1030 ft 12 kts 43°
2026-04-28 01:28 43.46225 -80.39119 1030 ft 8 kts 133°
2026-04-28 01:28 43.46135 -80.38962 1032 ft 39 kts 127°
2026-04-28 01:29 43.45920 -80.38588 1085 ft 54 kts 116°
2026-04-28 01:29 43.45687 -80.38165 1207 ft 56 kts 121°
2026-04-28 01:29 43.45431 -80.37773 1331 ft 55 kts 123°
2026-04-28 01:29 43.45159 -80.37370 1437 ft 56 kts 129°
2026-04-28 01:30 43.44760 -80.37228 1538 ft 69 kts 189°
2026-04-28 01:30 43.44381 -80.37750 1615 ft 84 kts 232°
2026-04-28 01:30 43.44144 -80.38514 1681 ft 89 kts 245°
2026-04-28 01:30 43.43987 -80.39345 1751 ft 90 kts 248°
2026-04-28 01:31 43.43855 -80.40212 1767 ft 92 kts 246°
2026-04-28 01:31 43.43693 -80.41048 1815 ft 88 kts 245°
2026-04-28 01:31 43.43557 -80.41874 1895 ft 86 kts 249°
2026-04-28 01:31 43.43497 -80.42412 1923 ft 85 kts 248°
2026-04-28 01:32 43.43401 -80.43470 2007 ft 82 kts 246°
2026-04-28 01:32 43.43275 -80.44218 2067 ft 77 kts 227°
2026-04-28 01:32 43.43102 -80.44910 2124 ft 74 kts 227°
2026-04-28 01:32 43.43035 -80.45366 2159 ft 73 kts 233°
2026-04-28 01:33 43.42990 -80.46084 2150 ft 77 kts 239°
2026-04-28 01:33 43.42914 -80.46829 2151 ft 80 kts 239°
2026-04-28 01:33 43.42858 -80.47590 2239 ft 76 kts 241°
2026-04-28 01:33 43.42873 -80.48535 2369 ft 75 kts 247°
2026-04-28 01:34 43.42869 -80.49018 2423 ft 74 kts 241°
2026-04-28 01:34 43.42873 -80.49758 2475 ft 80 kts 251°
2026-04-28 01:34 43.42947 -80.50496 2577 ft 78 kts 257°
2026-04-28 01:34 43.43055 -80.51290 2617 ft 83 kts 251°
2026-04-28 01:35 43.43089 -80.52042 2713 ft 78 kts 246°
2026-04-28 01:35 43.43132 -80.52787 2817 ft 79 kts 250°
2026-04-28 01:35 43.43179 -80.53538 2907 ft 79 kts 244°
2026-04-28 01:35 43.43153 -80.54248 3010 ft 72 kts 232°
2026-04-28 01:36 43.43109 -80.54966 3043 ft 77 kts 233°
2026-04-28 01:36 43.43005 -80.55696 3059 ft 79 kts 228°
2026-04-28 01:36 43.42890 -80.56418 3144 ft 75 kts 227°
2026-04-28 01:36 43.42767 -80.57092 3227 ft 71 kts 226°
2026-04-28 01:37 43.42635 -80.57746 3269 ft 70 kts 223°
2026-04-28 01:37 43.42477 -80.58386 3285 ft 73 kts 221°
2026-04-28 01:37 43.42357 -80.59090 3369 ft 78 kts 231°
2026-04-28 01:37 43.42239 -80.59789 3424 ft 72 kts 224°
2026-04-28 01:38 43.42098 -80.60436 3519 ft 68 kts 223°
2026-04-28 01:38 43.41936 -80.61028 3594 ft 63 kts 216°
2026-04-28 01:38 43.41732 -80.61537 3636 ft 57 kts 209°
2026-04-28 01:38 43.41539 -80.61944 3739 ft 47 kts 204°
2026-04-28 01:39 43.41347 -80.62310 3783 ft 46 kts 201°
2026-04-28 01:39 43.41132 -80.62641 3852 ft 47 kts 201°
2026-04-28 01:39 43.40930 -80.62981 3895 ft 47 kts 202°
2026-04-28 01:39 43.40710 -80.63287 3937 ft 46 kts 199°
2026-04-28 01:40 43.40481 -80.63519 3958 ft 35 kts 182°
2026-04-28 01:40 43.40254 -80.63556 4021 ft 32 kts 174°
2026-04-28 01:40 43.40012 -80.63683 4073 ft 39 kts 188°
2026-04-28 01:40 43.39782 -80.63906 4132 ft 42 kts 191°
2026-04-28 01:41 43.39549 -80.64166 4199 ft 48 kts 201°
2026-04-28 01:41 43.39347 -80.64531 4301 ft 46 kts 205°
2026-04-28 01:41 43.39155 -80.64881 4360 ft 46 kts 205°
2026-04-28 01:41 43.38969 -80.65256 4412 ft 50 kts 213°
2026-04-28 01:42 43.38806 -80.65686 4458 ft 50 kts 211°
2026-04-28 01:42 43.38623 -80.66066 4496 ft 48 kts 207°
2026-04-28 01:42 43.38445 -80.66459 4553 ft 48 kts 210°
2026-04-28 01:42 43.38291 -80.66928 4551 ft 59 kts 219°
2026-04-28 01:43 43.38101 -80.67436 4541 ft 62 kts 216°
2026-04-28 01:43 43.37865 -80.67944 4529 ft 66 kts 216°
2026-04-28 01:43 43.37625 -80.68466 4526 ft 68 kts 215°
2026-04-28 01:43 43.37349 -80.69012 4495 ft 70 kts 214°
2026-04-28 01:44 43.37062 -80.69534 4495 ft 67 kts 210°
2026-04-28 01:44 43.36762 -80.70020 4462 ft 65 kts 209°
2026-04-28 01:44 43.36484 -80.70507 4480 ft 65 kts 212°
2026-04-28 01:44 43.36217 -80.71010 4499 ft 63 kts 210°
2026-04-28 01:45 43.35945 -80.71481 4514 ft 62 kts 208°
2026-04-28 01:45 43.35660 -80.71915 4524 ft 61 kts 208°
2026-04-28 01:45 43.35366 -80.72323 4532 ft 59 kts 203°
2026-04-28 01:45 43.35045 -80.72666 4544 ft 57 kts 198°
2026-04-28 01:46 43.34713 -80.72955 4543 ft 57 kts 195°
2026-04-28 01:46 43.34371 -80.73206 4546 ft 56 kts 192°
2026-04-28 01:46 43.34039 -80.73430 4582 ft 51 kts 194°
2026-04-28 01:46 43.33696 -80.73620 4547 ft 53 kts 184°
2026-04-28 01:47 43.33337 -80.73712 4552 ft 55 kts 188°
2026-04-28 01:47 43.32994 -80.73992 4550 ft 60 kts 200°
2026-04-28 01:47 43.32663 -80.74369 4546 ft 61 kts 202°
2026-04-28 01:47 43.32339 -80.74702 4553 ft 58 kts 199°
2026-04-28 01:48 43.31997 -80.74991 4550 ft 56 kts 193°
2026-04-28 01:48 43.31638 -80.75206 4537 ft 57 kts 190°
2026-04-28 01:48 43.31284 -80.75453 4537 ft 59 kts 200°
2026-04-28 01:48 43.30944 -80.75786 4526 ft 60 kts 200°
2026-04-28 01:49 43.30604 -80.76110 4520 ft 60 kts 199°
2026-04-28 01:49 43.30267 -80.76486 4516 ft 63 kts 203°
2026-04-28 01:49 43.29920 -80.76829 4516 ft 62 kts 200°
2026-04-28 01:49 43.29563 -80.77159 4530 ft 61 kts 197°
2026-04-28 01:50 43.29199 -80.77493 4512 ft 63 kts 199°
2026-04-28 01:50 43.28836 -80.77784 4522 ft 60 kts 195°
2026-04-28 01:50 43.28474 -80.78095 4510 ft 61 kts 198°
2026-04-28 01:50 43.28110 -80.78339 4495 ft 58 kts 187°
2026-04-28 01:51 43.27722 -80.78418 4497 ft 54 kts 179°
2026-04-28 01:51 43.27346 -80.78492 4469 ft 57 kts 188°
2026-04-28 01:51 43.26999 -80.78776 4462 ft 60 kts 204°
2026-04-28 01:51 43.26674 -80.79138 4428 ft 62 kts 201°
2026-04-28 01:52 43.26323 -80.79447 4447 ft 57 kts 191°
2026-04-28 01:52 43.25952 -80.79645 4441 ft 58 kts 189°
2026-04-28 01:52 43.25560 -80.79822 4433 ft 60 kts 189°
2026-04-28 01:52 43.25184 -80.80087 4408 ft 66 kts 202°
2026-04-28 01:53 43.24828 -80.80477 4432 ft 63 kts 202°
2026-04-28 01:53 43.24482 -80.80862 4438 ft 64 kts 205°
2026-04-28 01:53 43.24151 -80.81260 4464 ft 63 kts 205°
2026-04-28 01:53 43.23829 -80.81688 4476 ft 64 kts 206°
2026-04-28 01:54 43.23492 -80.82036 4500 ft 61 kts 202°
2026-04-28 01:54 43.23162 -80.82430 4508 ft 65 kts 208°
2026-04-28 01:54 43.22885 -80.82933 4544 ft 69 kts 220°
2026-04-28 01:54 43.22666 -80.83559 4537 ft 75 kts 225°
2026-04-28 01:55 43.22477 -80.84228 4540 ft 75 kts 230°
2026-04-28 01:55 43.22288 -80.84888 4499 ft 77 kts 228°
2026-04-28 01:55 43.22079 -80.85549 4501 ft 75 kts 226°
2026-04-28 01:55 43.21861 -80.86183 4497 ft 73 kts 225°
2026-04-28 01:56 43.21656 -80.86823 4505 ft 74 kts 227°
2026-04-28 01:56 43.21451 -80.87457 4525 ft 72 kts 226°
2026-04-28 01:56 43.21244 -80.88090 4537 ft 73 kts 225°
2026-04-28 01:56 43.21033 -80.88729 4554 ft 74 kts 225°
2026-04-28 01:57 43.20814 -80.89383 4521 ft 77 kts 225°
2026-04-28 01:57 43.20580 -80.90028 4513 ft 75 kts 224°
2026-04-28 01:57 43.20358 -80.90688 4498 ft 75 kts 226°
2026-04-28 01:57 43.20129 -80.91324 4508 ft 75 kts 224°
2026-04-28 01:58 43.19892 -80.91959 4501 ft 75 kts 221°
2026-04-28 01:58 43.19635 -80.92580 4493 ft 75 kts 220°
2026-04-28 01:58 43.19389 -80.93197 4497 ft 75 kts 220°
2026-04-28 01:58 43.19152 -80.93838 4495 ft 76 kts 223°
2026-04-28 01:59 43.18915 -80.94471 4506 ft 74 kts 223°
2026-04-28 01:59 43.18676 -80.95105 4500 ft 75 kts 221°
2026-04-28 01:59 43.18421 -80.95715 4498 ft 74 kts 219°
2026-04-28 01:59 43.18156 -80.96307 4492 ft 74 kts 219°
2026-04-28 02:00 43.17891 -80.96907 4493 ft 70 kts 220°
2026-04-28 02:00 43.17638 -80.97483 4495 ft 72 kts 219°
2026-04-28 02:00 43.17370 -80.98079 4489 ft 75 kts 219°
2026-04-28 02:00 43.17088 -80.98677 4488 ft 75 kts 218°
2026-04-28 02:01 43.16811 -80.99285 4486 ft 75 kts 219°
2026-04-28 02:01 43.16543 -80.99891 4486 ft 75 kts 218°
2026-04-28 02:01 43.16317 -81.00386 4480 ft 76 kts 219°
2026-04-28 02:01 43.16022 -81.00988 4466 ft 77 kts 219°
2026-04-28 02:02 43.15734 -81.01639 4359 ft 87 kts 222°
2026-04-28 02:02 43.15465 -81.02367 4334 ft 85 kts 228°
2026-04-28 02:02 43.15220 -81.03101 4270 ft 87 kts 226°
2026-04-28 02:02 43.14979 -81.03856 4268 ft 85 kts 227°
2026-04-28 02:03 43.14768 -81.04540 4401 ft 69 kts 222°
2026-04-28 02:03 43.14575 -81.05098 4476 ft 65 kts 220°
2026-04-28 02:03 43.14349 -81.05668 4440 ft 72 kts 218°
2026-04-28 02:03 43.14101 -81.06253 4403 ft 77 kts 219°
2026-04-28 02:04 43.13802 -81.06904 4306 ft 83 kts 219°
2026-04-28 02:04 43.13503 -81.07616 4183 ft 89 kts 223°
2026-04-28 02:04 43.13219 -81.08373 3965 ft 89 kts 227°
2026-04-28 02:04 43.13022 -81.09146 3741 ft 84 kts 230°
2026-04-28 02:05 43.12858 -81.09894 3493 ft 80 kts 226°
2026-04-28 02:05 43.12703 -81.10608 3312 ft 76 kts 228°
2026-04-28 02:05 43.12589 -81.11321 3133 ft 78 kts 229°
2026-04-28 02:05 43.12439 -81.12027 2939 ft 79 kts 223°
2026-04-28 02:06 43.12257 -81.12691 2785 ft 72 kts 220°
2026-04-28 02:06 43.12100 -81.13359 2585 ft 77 kts 221°
2026-04-28 02:06 43.11919 -81.14041 2399 ft 76 kts 223°
2026-04-28 02:06 43.11724 -81.14737 2227 ft 81 kts 222°
2026-04-28 02:07 43.11522 -81.15424 2098 ft 77 kts 226°
2026-04-28 02:07 43.11316 -81.16101 2010 ft 77 kts 222°
2026-04-28 02:07 43.11112 -81.16760 1997 ft 76 kts 222°
2026-04-28 02:07 43.10953 -81.17345 2003 ft 70 kts 219°
2026-04-28 02:08 43.10758 -81.17956 2006 ft 70 kts 219°
2026-04-28 02:08 43.10567 -81.18557 1949 ft 68 kts 215°
2026-04-28 02:08 43.10370 -81.19138 1912 ft 67 kts 213°
2026-04-28 02:08 43.10138 -81.19690 1943 ft 63 kts 208°
2026-04-28 02:09 43.09911 -81.20153 1993 ft 56 kts 203°
2026-04-28 02:09 43.09657 -81.20614 1978 ft 62 kts 198°
2026-04-28 02:09 43.09341 -81.20950 2058 ft 51 kts 182°
2026-04-28 02:09 43.09033 -81.20991 2091 ft 38 kts 161°
2026-04-28 02:10 43.08793 -81.20853 2039 ft 38 kts 157°
2026-04-28 02:10 43.08545 -81.20714 1994 ft 40 kts 159°
2026-04-28 02:10 43.08305 -81.20519 1969 ft 40 kts 152°
2026-04-28 02:10 43.08080 -81.20276 1955 ft 42 kts 147°
2026-04-28 02:11 43.07870 -81.19992 1960 ft 43 kts 143°
2026-04-28 02:11 43.07657 -81.19728 1841 ft 44 kts 145°
2026-04-28 02:11 43.07411 -81.19499 1767 ft 44 kts 149°
2026-04-28 02:11 43.07128 -81.19255 1618 ft 53 kts 146°
2026-04-28 02:12 43.06813 -81.18966 1545 ft 56 kts 143°
2026-04-28 02:12 43.06493 -81.18660 1501 ft 57 kts 143°
2026-04-28 02:12 43.06185 -81.18350 1496 ft 54 kts 138°
2026-04-28 02:12 43.05896 -81.18008 1495 ft 56 kts 136°
2026-04-28 02:13 43.05612 -81.17645 1483 ft 55 kts 136°
2026-04-28 02:13 43.05346 -81.17341 1396 ft 48 kts 139°
2026-04-28 02:13 43.05089 -81.17082 1333 ft 44 kts 132°
2026-04-28 02:13 43.04841 -81.16808 1269 ft 49 kts 131°
2026-04-28 02:14 43.04606 -81.16438 1191 ft 53 kts 118°
2026-04-28 02:14 43.04321 -81.16118 1139 ft 46 kts 136°
2026-04-28 02:14 43.04086 -81.15836 945 ft 51 kts 131°
2026-04-28 02:14 43.03896 -81.15613 894 ft 21 kts 122°
2026-04-28 02:15 43.03731 -81.15404 895 ft 18 kts 140°
2026-04-28 02:15 43.03651 -81.15306 896 ft 15 kts 139°
2026-04-28 02:15 43.03588 -81.15270 897 ft 8 kts 211°
2026-04-28 02:16 43.03531 -81.15353 896 ft 16 kts 221°
2026-04-28 02:16 43.03448 -81.15425 896 ft 12 kts 182°
2026-04-28 02:16 43.03428 -81.15443 896 ft 0 kts 292°